Flag for U.S.A. Weather past 2 weeks in Canton, Ohio, U.S.A.

Now
66 °F

Partly sunny.


Feels Like: 66 °F
Forecast: 51 / 64 °F
Wind: 5 mph from North

Location: Akron-Canton Regional Airport

Current Time: Sep 16, 2014 at 4:32:38 PM

Latest Report: Sep 16, 2014 at 3:51 PM


Visibility: 10 mi

Pressure: 30.08 "Hg

Humidity: 56%

Dew point: 50 °F

Location of CantonLocation

Historic Weather in Canton — Graph

°F

Canton temperature yesterday

Maximum temperature yesterday: 69 °F (at 2:51 PM)
Minimum temperature yesterday: 48 °F (at 4:51 AM)
Average temperature yesterday: 58 °F

Past Weeks' High & Low Weather Summary

 TemperatureHumidityPressure
High87 °F (Sep 5, 2:51 PM)93% (Sep 3, 4:51 AM)30.36 "Hg (Sep 3, 4:51 AM)
Low43 °F (Sep 14, 5:51 AM)38% (Sep 3, 3:51 PM)29.70 "Hg (Sep 11, 2:51 AM)
Average66 °F73%30.08 "Hg
* Reported Sep 1 2:51 PM — Sep 16 2:51 PM, Canton, Weather by CustomWeather, © 2014

Note: Actual official high and low records may vary slightly from our data, if they occured in-between our weather recording intervals... More about our weather records

Advertising

Canton weather history for previous 24 hours

 ConditionsComfort  
Time TempWeatherWind HumidityBarometerVisibility
2:51 PM
Sep 16
63 °FPartly sunny.7 mph65%30.09 "Hg10 mi
1:51 PM65 °FPartly sunny.7 mph63%30.10 "Hg10 mi
12:51 PM63 °FPartly sunny.6 mph65%30.11 "Hg7 mi
11:51 AM61 °FPartly sunny.3 mph72%30.12 "Hg5 mi
10:51 AM59 °FMostly cloudy.6 mph84%30.14 "Hg3 mi
9:51 AM56 °FFog.No wind87%30.14 "Hg2 mi
8:51 AM55 °FFog.8 mph90%30.13 "Hg1 mi
7:51 AM53 °FFog.5 mph89%30.12 "Hg1 mi
6:51 AM54 °FFog.No wind86%30.09 "Hg3 mi
5:51 AM53 °FFog.7 mph89%30.09 "Hg4 mi
4:51 AM53 °FFog.3 mph89%30.08 "Hg4 mi
3:51 AM54 °FLight rain. Fog.8 mph90%30.07 "Hg2 mi
2:51 AM57 °FMostly cloudy.7 mph87%30.06 "Hg8 mi
1:51 AM57 °FRain. Fog.5 mph90%30.06 "Hg3 mi
12:51 AM57 °FLight rain. Fog.3 mph90%30.06 "Hg3 mi
11:51 PM
Sep 15
57 °FLight rain. Fog.6 mph87%30.07 "Hg6 mi
10:51 PM58 °FMostly cloudy.12 mph84%30.07 "Hg9 mi
9:51 PM59 °FMostly cloudy.8 mph84%30.07 "Hg10 mi
8:51 PM59 °FOvercast.3 mph81%30.05 "Hg10 mi
7:51 PM62 °FCloudy.No wind70%30.05 "Hg10 mi
6:51 PM64 °FBroken clouds.3 mph58%30.07 "Hg10 mi
5:51 PM66 °FPartly sunny.7 mph54%30.08 "Hg10 mi
4:51 PM67 °FBroken clouds.6 mph53%30.11 "Hg10 mi
Weather by CustomWeather, © 2014

See weather overviewHow to use our weather pages